SL-8 R/B

Satellite information

Favourite Embed

Satellite Type and Status

ROCKET BODYIN ORBIT

Key statistics

Satellite SL-8 R/B at a glance.

Uptime

15018

Days in orbit

Revolutions

≈ 13.8

Per day

Orbit

LEO

Low Earth Orbit

Inclination

82.9

Latest

Satellite identification and parameters

Extended collection of information and parameters for SL-8 R/B.

Object identification

Identified? True

Debris? False

Object name: SL-8 R/B

International designator: 1984-100B

Object number (NORAD): 15293

Object ID (CCSDS): 15293

Country: COMMONWEALTH OF INDEPENDENT STATES (CIS)

Current information (Y/N): Y

RCS size: LARGE

Orbital parameters

Period: 104.697 minutes

Inclination: 82.9369 deg

SMA: 7358.385 km

Apoapsis: 996.55 km

Periapsis: 963.95 km

RAAN: 306.3638 deg

Eccentricy: 0.00221513

Argument of periapsis: 185.7604 deg

Mean anomaly: 174.3301 deg

Mean motion: 13.75399913 rev/day

Mean motion (dot): 0.00000189 rev/day2

B* drag term: 0.00018063031 1/REarth

Two-line elements (TLE)

Creation date: Oct. 25, 2025, 3:11 a.m.

Reference frame: TEME

Reference center: EARTH

Epoch: Oct. 24, 2025, 11:30 p.m. UTC

TLE line 0: 0 SL-8 R/B

TLE line 1: 1 15293U 84100B 25297.97969100 .00000189 00000-0 18063-3 0 9998

TLE line 2: 2 15293 82.9369 306.3638 0022151 185.7604 174.3301 13.75399913 6780

Live tracking on map

Real-time ground track for satellite SL-8 R/B.

In-orbit conjunctions

A list of the most updated potential collisions computed for object SL-8 R/B.

Target Orbit TCA Probability of collision Miss distance Type
COSMOS 1275 DEB LEO 2025-05-09 11:59:00 0.0005208849 165.0 (m) DEBRIS
FENGYUN 1C DEB SSO 2024-11-25 19:34:24 0.0001675035 190.0 (m) DEBRIS
COSMOS 842 LEO 2024-06-27 04:34:55 0.0001313209 343.0 (m) PAYLOAD

Associated space launch

Film-return reconnaissance satellite

SL-8 R/B was lifted into orbit during the mission ‘Soyuz U | Zenit-4MKT 26 (Kosmos 1597)’, on board a Soyuz U space rocket.

The launch took place on Sept. 13, 1984, 10:25 a.m. from 43/4 (43R).

For more information about the launch, click the button.

Launch to space Soyuz U | Zenit-4MKT 26 (Kosmos 1597)
Soyuz U | Zenit-4MKT 26 (Kosmos 1597)

Agency: N/A

Status: Launch Successful

Launch date: Sept. 13, 1984, 10:25 a.m. UTC

Rocket: Soyuz U

Launch pad: 43/4 (43R)

Location: Plesetsk Cosmodrome, Russian Federation

...

Latest news about this satellite

There are no fresh news available about this satellite. Check back as we update our databases every day.


Newsletter sign-up

Weekly statistics, charts and insights to help you stay on top of the space industry.